Find OneWeb SL0652

NORAD ID: 55814 Int'l Des: 2023-029 Owner: ONEWEBN Country: UK Constellation: oneweb operational
LEOCIRCULARPOLARONEWEB_TYPE

リアルタイム位置

3D地球を読み込み中...

OneWeb SL0652について

説明を読み込み中...

次回通過

Passes for default location (London). Set your location on the main map for personalized predictions.

高度履歴

Loading altitude history...

軌道要素

1 55814U 23029U 26125.01070044 .00000212 00000-0 53849-3 0 9998
2 55814 87.8918 298.3289 0001750 98.7381 261.3947 13.14502541153698
Epoch: May 5, 2026 • Age: 10 hours

現在のステータス

高度 1207.9 km
速度 7.25 km/s
衛星直下点 23.30°N, 101.26°E
打ち上げ日 Mar 9, 2023
運用期間 3.1 years
タイプ internet

技術仕様

分類 Payload
質量 148.00 kg
乾燥質量 140.00 kg
総質量 148.00 kg
長さ 1.30 m
直径 1.00 m
スパン 5.00 m
形状 Trapezoid+2 pan
製造者 ONEWUS
バスタイプ ARROW
フェーズステータス In Orbit
所有者/国 ONEWEBN/UK

Most Searched